This demonstration page uses our WeatherBlox Daily Observations layout. Learn more.

Left ArrowRight Arrow

Hourly Observations for September 30, 2018

Temp ( °F °C ) Dew Point ( °F °C ) Humidity (%) Winds ( mph kmh ) Pressure ( in mb ) Visibility ( mi km ) Precip ( " mm )
12:54 am 00:54 Cloudy 50 10 49 9.4 96 96 NNE 6 9 30.13 1020 10 16 N/A
1:54 am 01:54 Cloudy 50 10 49 9.4 96 96 NNE 7 11 30.13 1020 10 16 N/A
2:54 am 02:54 Cloudy 50 10 49 9.4 96 96 N 9 15 30.14 1021 9 14 N/A
3:24 am 03:24 Cloudy 50 10 48 8.9 93 93 NNE 7 11 30.18 1022 10 16 N/A
3:39 am 03:39 Cloudy 50 10 49 9.4 96 96 NNE 9 15 30.18 1022 10 16 N/A
3:47 am 03:47 Cloudy 50 10 48 8.9 93 93 NNE 8 13 30.18 1022 10 16 N/A
3:54 am 03:54 Cloudy 50 10 48 8.9 93 93 NNE 8 13 30.14 1021 10 16 N/A
4:54 am 04:54 Cloudy 50 10 48 8.9 93 93 NNE 7 11 30.15 1021 8 13 N/A
5:07 am 05:07 Cloudy with Light Rain 50 10 48 8.9 93 93 NNE 7 11 30.18 1022 8 13 N/A
5:24 am 05:24 Cloudy with Light Rain 50 10 48 8.9 93 93 NNE 8 13 30.18 1022 7 11 N/A
5:54 am 05:54 Cloudy with Mist and Fog 50 10 49 9.4 96 96 NNE 8 13 30.16 1021 6 10 N/A
6:08 am 06:08 Cloudy with Mist and Fog 50 10 49 9.4 96 96 N 7 11 30.18 1022 6 10 N/A
6:54 am 06:54 Cloudy with Mist and Fog 50 10 48 8.9 93 93 NNE 8 13 30.18 1022 6 10 N/A
7:54 am 07:54 Cloudy with Light Rain 50 10 48 8.9 93 93 NNE 12 19 30.19 1022 6 10 N/A
8:03 am 08:03 Cloudy with Light Rain 50 10 48 8.9 93 93 NNE 12 19 30.21 1023 3 5 N/A
8:54 am 08:54 Cloudy with Mist and Fog 50 10 48 8.9 93 93 NNE 14 22 30.20 1023 3 5 N/A
9:03 am 09:03 Cloudy with Mist and Fog 50 10 48 8.9 93 93 NNE 14 22 30.24 1024 3 5 N/A
9:10 am 09:10 Cloudy with Mist and Fog 50 10 48 8.9 93 93 NNE 9 15 30.24 1024 3 5 N/A
9:18 am 09:18 Cloudy with Mist and Fog 50 10 48 8.9 93 93 NNE 8 13 30.24 1024 3 5 N/A
9:24 am 09:24 Cloudy with Mist and Fog 50 10 48 8.9 93 93 NNE 10 17 30.24 1024 3 5 N/A
9:35 am 09:35 Cloudy with Light Rain 50 10 48 8.9 93 93 NNE 10 17 30.24 1024 3 4 N/A
9:42 am 09:42 Cloudy with Light Rain 50 10 48 8.9 93 93 NNE 12 19 30.24 1024 3 5 0.01 0.25
9:54 am 09:54 Cloudy with Light Rain 50 10 48 8.9 93 93 NNE 12 19 30.20 1023 3 5 0.01 0.25
10:54 am 10:54 Cloudy with Light Rain 50 10 48 8.9 93 93 NNE 12 19 30.21 1023 3 5 0.01 0.25
11:27 am 11:27 Cloudy with Light Rain 50 10 48 8.9 93 93 NNE 12 19 30.24 1024 2 3 N/A
11:54 am 11:54 Cloudy with Light Rain 51 10.6 49 9.4 92 92 NNE 10 17 30.21 1023 3 5 0.01 0.25
12:30 pm 12:30 Cloudy with Light Rain 51 10.6 49 9.4 92 92 NNE 12 19 30.24 1024 3 4 0.01 0.25
12:37 pm 12:37 Cloudy with Mist and Fog 51 10.6 48 8.9 89 89 NE 14 22 30.24 1024 5 8 0.01 0.25
12:50 pm 12:50 Cloudy 52 11 48 9 88 88 NE 12 19 30.24 1024 10 16 0.01 0.25
12:54 pm 12:54 Cloudy with Light Rain 52 11.1 49 9.4 89 89 NE 10 17 30.20 1023 8 13 0.01 0.25
1:19 pm 13:19 Cloudy with Light Rain 52 11.1 49 9.4 89 89 NNE 13 20 30.21 1023 7 11 N/A
1:29 pm 13:29 Cloudy 51 10.6 49 9.4 92 92 NNE 13 20 30.21 1023 10 16 N/A
1:54 pm 13:54 Cloudy 52 11.1 49 9.4 89 89 NE 14 22 30.18 1022 10 16 N/A
2:37 pm 14:37 Cloudy with Light Rain 51 10.6 49 9.4 92 92 NNE 14 22 30.18 1022 4 6 N/A
2:54 pm 14:54 Cloudy with Mist and Fog 51 10.6 49 9.4 92 92 NE 10 17 30.16 1022 3 4 N/A
3:54 pm 15:54 Cloudy with Light Rain 51 10.6 49 9.4 92 92 NNE 13 20 30.16 1021 3 4 0.01 0.25
4:54 pm 16:54 Cloudy with Light Rain 50 10 49 9.4 96 96 NNE 13 20 30.16 1022 3 4 0.01 0.25
5:01 pm 17:01 Cloudy with Mist and Fog 50 10 48 8.9 93 93 NNE 14 22 30.18 1022 4 6 N/A
5:08 pm 17:08 Cloudy with Mist and Fog 50 10 49 9.4 96 96 NNE 10 17 30.18 1022 3 4 N/A
5:18 pm 17:18 Cloudy with Light Rain 50 10 49 9.4 96 96 NE 12 19 30.18 1022 2 3 N/A
5:24 pm 17:24 Cloudy with Mist and Fog 50 10 48 8.9 93 93 NNE 13 20 30.18 1022 3 5 N/A
5:43 pm 17:43 Cloudy with Mist and Fog 50 10 48 8.9 93 93 NNE 9 15 30.18 1022 2 3 N/A
5:54 pm 17:54 Cloudy with Light Rain 50 10 48 8.9 93 93 NNE 13 20 30.16 1022 3 5 N/A
6:54 pm 18:54 Cloudy with Light Rain 50 10 48 8.9 93 93 NE 12 19 30.17 1022 4 6 0.01 0.25
7:54 pm 19:54 Cloudy with Light Rain 50 10 48 8.9 93 93 NNE 10 17 30.18 1022 6 10 N/A
8:54 pm 20:54 Cloudy with Mist and Fog 50 10 48 8.9 93 93 NE 14 22 30.19 1022 3 5 N/A
9:50 pm 21:50 Cloudy with Mist and Fog 50 10 48 9 94 94 NE 13 20 30.21 1023 3 4 N/A
9:54 pm 21:54 Cloudy with Mist and Fog 49 9.4 48 8.9 97 97 NE 13 20 30.19 1022 3 4 N/A
10:30 pm 22:30 Cloudy with Mist and Fog 49 9.4 48 8.9 97 97 NE 13 20 30.21 1023 3 5 N/A
10:39 pm 22:39 Cloudy with Mist and Fog 49 9.4 48 8.9 97 97 NE 10 17 30.21 1023 3 4 N/A
10:54 pm 22:54 Cloudy with Mist and Fog 49 9.4 48 8.9 97 97 NE 9 15 30.18 1022 3 4 N/A
11:54 pm 23:54 Cloudy with Mist and Fog 50 10 48 8.9 93 93 ENE 9 15 30.17 1022 3 4 N/A

Powered by AerisWeather